Content
SEND FEEDBACK

Daily
Averages
Monthly
Summary
United Kingdom

YORK, ENGLAND


Home > Europe > United Kingdom > England
Elevation: 27 feet     Latitude: 53 50N     Longitude: 001 11W

WEATHER
 
SELECT A DAY
Number of Records: 48,838;   Date Range: 6/27/01 - 12/19/13
 
SHARE

PRINT THIS DATA

[ ← Previous Day ]
WEATHER ALMANAC - OCTOBER 8, 2013
[ Next Day → ]
[ °C ]   °F
We're sorry. There is no daily almanac available for York, England on October 8, 2013.
WEATHER BY HOUR - OCTOBER 8, 2013
[ °C ]   °F
Local TimeTemperatureDewpointHumidityBarometerVisibilityWind DirectionWind SpeedGust SpeedPrecipitationEventsConditions
1:50 AM55.4 °F53.6 °F94 %30.12 in6.2 miSSE (150°)6.9 mphScattered Clouds
2:50 AM55.4 °F51.8 °F88 %30.12 in6.2 miSouth (170°)6.9 mphScattered Clouds
3:50 AM57.2 °F53.6 °F88 %30.12 in6.2 miSouth (190°)8.1 mphMostly Cloudy
4:50 AM59.0 °F55.4 °F88 %30.12 in6.2 miSW (220°)11.5 mphMostly Cloudy
5:50 AM60.8 °F55.4 °F82 %30.12 in6.2 miWSW (240°)12.7 mphPartly Cloudy
6:50 AM60.0 °F55.0 °F80 %30.14 in11.0 miWSW (250°)11.5 mph
6:50 AM59.0 °F55.4 °F88 %30.12 in6.2 miWSW (250°)11.5 mphPartly Cloudy
7:50 AM59.0 °F55.4 °F88 %30.12 in6.2 miSW (220°)12.7 mphPartly Cloudy
8:50 AM60.8 °F57.2 °F88 %30.15 in6.2 miSW (220°)9.2 mphPartly Cloudy
9:50 AM64.0 °F55.0 °F64 %30.17 in16.0 miWSW (250°)9.2 mphScattered Clouds
9:50 AM64.4 °F55.4 °F73 %30.15 in6.2 miWSW (250°)9.2 mphPartly Cloudy
10:50 AM62.6 °F53.6 °F72 %30.15 in6.2 miWest (270°)11.5 mphScattered Clouds
11:50 AM64.4 °F53.6 °F68 %30.15 in6.2 miWest (260°)16.1 mphScattered Clouds
12:50 PM64.4 °F50.0 °F59 %30.15 in6.2 miWest (280°)15.0 mphScattered Clouds
12:50 PM65.0 °F50.0 °F48 %30.18 in19.0 miWest (280°)15.0 mphPartly Cloudy
1:50 PM62.6 °F50.0 °F63 %30.18 in6.2 miWest (270°)17.3 mphMostly Cloudy
2:50 PM64.4 °F48.2 °F56 %30.18 in6.2 miWest (260°)20.7 mph32.2 mphPartly Cloudy
3:50 PM63.0 °F49.0 °F50 %30.18 in19.0 miWest (270°)15.0 mphScattered Clouds
3:50 PM62.6 °F48.2 °F59 %30.18 in6.2 miWest (270°)15.0 mphPartly Cloudy
4:50 PM60.8 °F48.2 °F63 %30.18 in6.2 miWest (270°)19.6 mphScattered Clouds
5:50 PM59.0 °F48.2 °F67 %30.18 in6.2 miWNW (290°)10.4 mphScattered Clouds
6:50 PM57.2 °F48.2 °F72 %30.18 in6.2 miWest (270°)8.1 mphMostly Cloudy
6:50 PM58.0 °F48.0 °F60 %30.21 in14.0 miWest (270°)8.1 mphMostly Cloudy
7:50 PM55.4 °F46.4 °F72 %30.21 in6.2 miWest (280°)8.1 mph
8:50 PM55.4 °F48.2 °F77 %30.21 in6.2 miWest (280°)8.1 mphScattered Clouds
9:50 PM53.0 °F46.0 °F70 %30.21 in14.0 miSW (230°)4.6 mph
9:50 PM53.6 °F46.4 °F77 %30.21 in6.2 miSW (230°)4.6 mph
10:50 PM51.8 °F46.4 °F82 %30.21 in6.2 miSW (220°)6.9 mphMostly Cloudy
11:50 PM53.6 °F48.2 °F82 %30.18 in6.2 miWSW (240°)9.2 mphOvercast
Hourly data recorded from EGXG, located miles away from York, England







STORIES FROM OUR PARTNERS